Wind_Speed
11 11 11 12 12 13 16 17 15 14 14 13 13 11 10 9 6 5 4 3 3 4 4 3 3 3 3 3 2 1 1 2 2 2 2 2 2 2 2 2 2 2 2 2 3 3 3 3 3
11 11 11 12 14 17 17 17 15 14 14 14 12 11 9 7 6 6 4 3 3 3 3 3 2 2 3 2 1 0 1 2 2 2 2 2 2 2 2 2 2 2 1 1 2 2 3 3 3
9 10 11 11 15 17 17 16 16 15 14 14 12 11 9 7 6 5 4 3 3 3 2 2 2 2 2 3 2 1 1 2 2 2 2 2 2 2 2 2 2 2 1 1 1 2 2 3 3
8 9 10 11 14 16 15 15 16 15 14 13 13 11 10 8 7 6 5 4 4 3 3 2 3 3 3 3 2 1 1 2 2 2 2 2 1 1 2 2 2 1 1 1 1 1 2 2 3
6 7 8 11 12 13 12 13 16 16 15 14 13 12 11 10 8 7 6 5 4 3 3 3 3 3 2 2 2 2 2 2 2 2 2 2 2 1 1 1 1 1 2 1 0 1 1 2 2
6 5 7 9 11 12 12 14 16 16 15 15 14 13 12 10 9 7 6 5 4 2 2 2 2 2 2 1 2 2 2 2 2 2 2 2 2 2 1 2 1 2 2 1 1 1 1 2 2
4 5 6 9 10 11 11 13 15 14 14 15 14 14 12 11 9 8 6 5 4 2 2 2 1 1 1 1 1 2 2 2 2 2 2 1 2 2 2 2 2 2 1 1 1 1 1 1 2
5 5 7 9 9 9 10 12 13 14 14 15 14 14 12 11 9 8 6 6 5 3 2 2 2 1 0 1 1 2 2 3 2 1 2 1 2 2 2 1 1 2 1 1 1 1 1 1 1
4 5 6 9 8 6 7 10 12 12 13 14 14 14 13 12 10 8 7 6 5 4 3 2 2 1 1 1 2 2 3 4 3 2 2 2 2 2 1 1 1 1 1 1 1 1 2 2 1
4 3 3 5 5 5 7 10 12 12 13 14 13 13 13 11 10 8 8 7 6 4 4 3 2 1 1 1 1 2 3 4 4 3 3 3 3 2 2 2 2 1 1 0 0 1 2 2 2
5 3 0 2 3 5 7 10 11 12 13 13 13 13 12 10 8 7 8 8 8 6 4 3 3 2 1 1 1 2 3 4 5 5 4 4 4 3 3 3 3 2 2 0 0 1 2 2 1
6 4 2 2 4 5 7 8 9 11 13 13 13 12 11 10 8 7 7 7 8 8 6 4 3 2 1 2 2 3 4 4 5 5 5 5 5 4 3 4 4 3 2 1 1 1 1 1 1
7 4 2 3 4 5 7 9 9 10 12 12 12 12 11 10 8 7 6 6 6 6 5 4 3 2 3 4 4 4 4 4 5 6 6 6 6 5 4 4 4 3 2 2 1 1 1 1 1
7 5 3 3 4 5 7 9 9 11 12 12 12 11 11 10 9 9 7 5 5 5 4 3 3 3 4 5 5 5 5 5 6 7 8 8 7 5 5 4 4 3 2 2 2 1 1 1 0
8 6 5 4 3 3 6 8 9 11 12 11 12 10 9 9 9 8 7 6 5 5 5 4 4 4 5 4 4 4 4 6 6 7 8 8 7 7 6 6 5 4 4 3 3 2 2 2 1
8 7 6 5 4 5 6 9 10 12 12 12 12 10 10 9 9 8 8 7 6 6 6 6 6 6 5 4 4 4 5 6 7 7 8 9 9 8 8 7 6 5 4 4 4 3 3 3 2
8 7 6 5 5 6 8 10 13 11 10 11 11 11 10 10 9 8 8 9 8 8 7 6 7 7 6 5 4 5 6 7 8 7 7 9 10 9 8 8 7 7 6 5 5 5 4 4 4
9 8 7 6 5 7 8 11 13 12 11 12 11 11 11 10 9 8 9 10 8 7 8 7 7 7 7 6 5 5 5 6 7 7 7 8 10 10 9 8 8 8 8 7 7 6 6 6 5
12 11 7 5 7 8 9 11 12 14 12 11 11 12 12 11 10 9 9 10 9 8 8 7 8 7 7 6 6 6 5 5 5 7 8 9 10 10 10 9 9 9 9 9 8 8 7 7 7
14 12 8 7 8 9 10 11 12 13 13 12 12 13 14 12 11 9 9 9 10 8 7 8 8 7 7 7 7 6 5 5 6 6 8 9 10 10 10 10 10 10 10 9 10 10 9 9 8
14 12 11 11 11 11 11 11 12 12 14 13 13 13 14 15 13 9 9 10 10 10 9 9 8 7 8 7 7 7 6 6 6 7 8 10 10 11 11 11 11 11 11 10 10 11 11 10 10
15 14 13 14 14 13 13 13 11 12 13 13 13 14 15 15 13 11 10 10 9 10 9 9 8 8 7 7 7 6 6 6 7 8 9 11 11 12 12 12 12 11 11 11 12 12 12 11 11
16 16 16 16 16 15 15 16 14 14 13 13 13 14 15 15 14 12 11 10 10 10 9 8 8 8 7 7 7 7 7 7 8 8 9 10 12 13 13 13 13 13 12 12 12 13 12 13 13
17 18 18 18 17 16 15 16 14 14 14 13 13 13 14 15 14 12 10 11 10 8 7 8 8 7 7 7 7 7 7 8 8 9 9 11 13 14 14 14 15 14 14 13 13 13 14 14 14
20 19 19 18 17 15 15 16 14 15 15 14 14 14 14 15 14 12 11 11 10 8 8 8 8 7 7 8 8 8 8 8 9 9 10 11 13 15 16 15 16 15 15 15 15 14 15 15 15
20 20 19 18 16 15 15 13 12 13 14 14 14 14 13 15 14 11 11 11 10 9 8 8 9 8 8 9 9 9 8 8 9 10 10 10 12 14 15 15 16 16 16 16 16 16 16 17 16
21 20 19 20 19 18 16 14 14 13 14 14 15 15 14 13 12 12 11 10 9 9 9 9 9 9 9 9 8 8 9 9 8 9 10 11 12 14 15 16 17 17 18 17 18 18 17 18 18
21 20 21 22 21 20 18 17 15 15 15 15 16 15 13 12 12 12 11 10 9 9 10 10 11 10 10 9 9 8 9 8 8 9 10 10 12 13 15 16 18 18 19 19 19 19 18 18 19
21 21 22 23 23 22 20 17 16 14 15 17 17 15 14 13 12 11 11 10 9 10 10 11 11 10 10 10 10 9 8 8 9 9 10 11 12 13 14 16 18 19 20 20 21 21 20 20 21
21 21 22 24 24 24 24 21 19 18 18 18 17 15 13 12 10 10 11 11 10 10 11 11 10 10 10 10 10 10 10 10 10 10 10 11 12 13 14 16 17 19 20 21 22 22 22 22 23
Wind_Direction
98 93 88 82 71 59 49 45 42 46 46 44 38 35 39 45 47 49 54 68 92 114 116 120 125 121 120 116 102 81 29 3 358 1 3 10 18 23 30 36 38 41 63 74 77 78 85 87 87
99 92 88 82 70 59 46 41 37 36 43 42 39 33 34 38 44 49 52 63 87 112 126 127 133 139 149 148 155 243 324 340 337 340 344 348 357 8 10 15 17 19 54 76 80 82 85 84 84
102 95 86 76 68 55 44 34 30 29 32 33 37 33 31 37 46 50 54 64 79 98 113 126 134 142 165 177 190 216 266 311 318 325 329 326 335 350 359 3 359 13 36 55 80 83 82 81 81
106 103 91 80 66 53 42 30 23 21 19 24 29 30 32 37 46 49 55 63 72 88 100 122 134 143 159 181 196 220 253 292 304 303 301 295 305 327 336 339 347 6 18 38 72 71 76 81 85
110 102 94 86 70 58 44 28 16 11 11 17 24 28 31 35 41 44 50 58 66 79 98 117 134 149 160 181 199 230 255 279 292 292 292 284 280 287 311 330 349 356 349 357 26 63 72 79 86
111 108 96 78 71 58 34 19 9 5 8 18 24 30 31 33 38 40 44 42 44 62 90 106 127 154 176 195 217 246 266 284 288 292 290 290 290 280 295 320 338 348 348 351 15 47 68 74 90
117 121 96 80 67 52 27 10 359 3 17 18 20 25 31 34 35 37 43 39 34 46 65 94 108 137 167 213 240 271 271 268 260 275 284 287 288 287 299 318 333 342 342 357 18 46 62 71 90
124 121 97 80 62 43 16 2 354 1 9 12 16 17 24 34 38 38 43 44 38 51 53 66 68 67 315 270 263 279 287 269 258 260 272 293 304 285 278 303 333 345 348 353 22 57 72 78 86
138 118 88 70 56 25 0 350 344 356 2 6 9 12 18 31 40 42 47 48 47 49 50 53 62 48 2 313 285 281 294 272 250 249 252 275 290 273 260 274 298 318 330 342 46 70 63 76 100
165 148 74 57 40 348 333 332 339 352 357 0 5 11 16 24 35 37 41 42 41 51 55 51 42 29 17 2 303 267 286 267 243 244 249 255 266 258 246 264 270 287 304 324 66 89 70 88 108
195 197 228 25 348 315 309 317 330 341 345 354 360 8 11 18 26 36 42 39 41 39 36 36 29 23 14 5 315 269 270 260 240 244 245 246 251 247 248 257 262 275 282 249 88 94 89 95 120
218 223 246 296 294 290 299 307 317 328 338 348 357 3 7 12 24 41 43 41 34 27 29 21 3 356 339 338 323 290 260 262 245 240 240 241 238 240 247 256 257 266 257 207 185 119 120 102 99
225 235 257 294 290 293 297 304 311 318 330 340 350 358 4 7 12 20 34 43 37 24 23 6 340 317 313 316 306 285 271 264 245 240 237 237 236 237 240 248 251 253 242 210 196 193 160 130 89
229 227 223 261 286 300 296 305 311 315 324 334 343 352 1 1 2 2 13 32 37 19 11 356 325 309 308 305 300 297 283 267 248 239 240 233 230 234 233 235 248 245 229 220 224 222 171 148 133
226 217 226 260 283 313 311 309 314 317 320 327 335 344 351 355 355 354 360 9 17 16 8 348 331 317 309 301 298 306 287 267 251 242 234 227 227 229 228 228 235 229 221 219 225 222 204 196 208
226 216 224 250 279 301 306 312 308 314 317 326 332 337 339 346 350 348 348 350 355 359 360 354 347 340 333 321 299 292 284 266 254 245 233 225 222 225 221 221 226 223 217 216 215 213 215 215 218
217 212 226 238 267 287 298 305 306 314 318 328 332 333 331 338 342 342 339 340 341 341 350 348 347 343 336 327 305 298 288 270 252 244 231 221 219 222 220 215 218 222 220 220 220 215 224 227 229
211 212 221 235 262 283 294 300 303 307 313 321 327 332 329 331 339 340 336 336 331 337 340 337 338 334 328 320 311 301 293 274 247 236 225 217 213 217 218 219 218 221 223 225 224 219 227 230 235
218 221 224 239 263 275 286 295 301 306 310 318 328 328 327 324 332 334 332 332 332 329 331 336 335 330 322 308 305 302 293 274 249 229 220 217 216 218 222 225 227 227 227 229 225 223 230 231 233
225 222 223 232 245 263 280 289 295 300 306 314 324 326 328 326 326 323 324 326 331 331 325 325 330 329 321 308 300 292 282 266 244 229 221 221 223 222 223 226 229 231 230 231 227 227 230 232 233
226 222 218 228 242 254 266 276 282 289 298 306 313 318 328 329 326 327 327 324 325 323 322 321 321 319 313 305 302 288 275 265 248 234 229 226 229 226 227 229 229 232 234 233 228 228 230 233 234
222 221 222 229 241 248 259 267 269 276 291 302 308 313 325 326 325 326 323 320 323 320 313 314 312 311 306 299 299 295 276 265 257 243 238 232 233 233 233 233 232 233 235 234 231 231 231 235 236
224 224 226 231 241 247 254 260 264 269 280 297 304 312 320 325 325 321 318 321 318 313 306 306 305 307 305 299 297 289 272 266 264 255 246 238 240 239 237 237 235 235 235 235 236 237 236 236 237
227 228 230 237 244 248 253 258 261 268 275 287 303 314 320 321 318 314 315 316 314 310 308 310 311 307 307 300 294 286 274 266 264 259 251 248 245 242 242 243 241 238 239 239 239 240 239 239 239
229 232 235 238 243 246 250 256 268 275 275 281 296 306 313 317 316 309 309 311 307 305 310 312 312 305 306 305 296 284 277 272 265 262 258 255 249 243 242 245 245 243 243 240 241 242 241 242 244
231 234 237 240 241 240 244 254 266 274 281 285 296 305 311 311 309 308 313 309 308 307 310 312 312 307 305 304 299 285 277 275 272 268 261 258 253 245 243 246 247 246 247 245 245 246 246 246 247
230 233 236 238 238 239 242 251 262 271 287 289 293 298 304 308 309 309 312 307 307 307 309 312 311 308 304 302 297 287 281 280 276 271 265 256 252 249 248 249 250 250 250 247 248 250 249 249 249
228 230 233 236 237 238 244 253 265 275 281 284 285 288 296 300 305 308 307 299 296 300 304 309 307 305 303 295 290 287 285 281 276 274 271 262 256 256 254 252 249 250 250 247 249 250 250 250 252
224 227 233 237 237 237 242 253 263 273 279 282 281 287 296 295 296 301 303 296 297 302 302 306 307 303 301 294 287 285 285 281 280 278 273 267 264 262 259 256 252 252 252 250 249 250 252 252 253
223 228 235 238 239 242 244 249 259 268 277 287 285 291 291 290 291 298 300 301 303 300 299 306 306 305 304 299 292 286 285 282 284 282 281 277 272 267 262 260 257 254 254 254 253 251 252 254 254
Height
5905 5904 5904 5905 5905 5903 5902 5902 5901 5901 5901 5900 5899 5899 5898 5898 5898 5900 5897 5896 5896 5896 5896 5897 5897 5898 5899 5899 5900 5900 5901 5901 5901 5901 5901 5900 5900 5899 5899 5898 5898 5898 5897 5897 5897 5897 5896 5896 5896
5906 5906 5906 5906 5905 5903 5903 5902 5902 5902 5902 5901 5900 5900 5899 5898 5897 5897 5896 5896 5896 5896 5897 5897 5898 5898 5899 5900 5900 5901 5901 5901 5901 5901 5902 5901 5901 5900 5900 5899 5899 5899 5898 5898 5898 5898 5897 5897 5896
5908 5908 5908 5907 5904 5904 5904 5903 5903 5903 5902 5902 5901 5901 5900 5898 5897 5897 5897 5896 5896 5897 5897 5898 5898 5899 5899 5900 5901 5901 5902 5902 5902 5902 5902 5902 5902 5901 5901 5900 5900 5900 5899 5899 5899 5898 5898 5898 5897
5909 5910 5909 5908 5905 5905 5904 5904 5905 5904 5903 5903 5902 5902 5901 5899 5898 5897 5897 5897 5897 5897 5898 5898 5898 5899 5900 5900 5901 5901 5902 5902 5902 5902 5903 5902 5902 5902 5902 5901 5901 5900 5900 5899 5899 5899 5899 5898 5898
5910 5910 5909 5907 5906 5905 5905 5905 5906 5905 5904 5903 5903 5902 5901 5899 5897 5898 5898 5897 5897 5897 5898 5898 5899 5899 5900 5900 5901 5901 5902 5902 5902 5903 5903 5903 5903 5902 5902 5902 5901 5901 5900 5900 5900 5899 5899 5899 5898
5912 5912 5910 5908 5907 5906 5906 5906 5907 5907 5906 5905 5904 5903 5901 5899 5898 5898 5898 5897 5897 5898 5898 5898 5899 5899 5900 5900 5901 5901 5902 5902 5902 5903 5903 5903 5903 5903 5902 5902 5902 5901 5901 5901 5900 5900 5900 5899 5899
5913 5912 5911 5910 5909 5908 5908 5908 5908 5908 5907 5907 5905 5904 5902 5900 5899 5898 5898 5898 5898 5898 5898 5899 5899 5900 5900 5900 5901 5901 5902 5902 5902 5903 5903 5903 5903 5903 5903 5903 5902 5902 5901 5901 5901 5901 5900 5900 5899
5913 5913 5911 5910 5910 5910 5910 5909 5909 5908 5908 5907 5906 5905 5903 5902 5900 5898 5898 5899 5898 5899 5899 5899 5899 5899 5900 5900 5901 5901 5901 5902 5902 5902 5903 5903 5903 5903 5903 5903 5903 5902 5902 5901 5901 5901 5900 5900 5900
5913 5914 5911 5910 5910 5911 5911 5910 5909 5909 5908 5907 5906 5905 5905 5903 5901 5899 5899 5899 5899 5899 5899 5899 5899 5899 5899 5899 5900 5901 5901 5901 5902 5902 5902 5903 5903 5903 5903 5903 5903 5902 5902 5901 5901 5901 5901 5901 5900
5913 5913 5911 5911 5911 5912 5911 5911 5910 5909 5908 5907 5907 5906 5905 5903 5902 5901 5899 5899 5899 5899 5899 5899 5899 5899 5899 5899 5899 5899 5900 5900 5901 5901 5902 5902 5902 5902 5903 5903 5903 5902 5902 5902 5901 5901 5901 5901 5901
5913 5913 5912 5911 5912 5912 5912 5911 5910 5910 5909 5908 5907 5907 5905 5904 5903 5901 5900 5899 5899 5898 5898 5898 5898 5898 5898 5898 5898 5898 5898 5899 5899 5900 5901 5901 5901 5902 5902 5902 5902 5902 5902 5902 5902 5902 5902 5901 5901
5913 5912 5912 5911 5912 5912 5912 5912 5911 5910 5910 5909 5908 5906 5905 5904 5903 5902 5901 5900 5899 5898 5898 5898 5898 5898 5897 5897 5897 5897 5897 5898 5898 5899 5900 5900 5900 5901 5901 5902 5902 5902 5902 5902 5902 5902 5902 5902 5902
5912 5912 5911 5911 5911 5912 5912 5911 5911 5910 5909 5908 5908 5907 5906 5905 5903 5902 5902 5901 5900 5898 5898 5898 5897 5897 5897 5896 5896 5896 5896 5897 5896 5897 5898 5899 5900 5900 5901 5901 5901 5901 5901 5901 5902 5902 5902 5902 5902
5912 5911 5911 5911 5910 5911 5911 5910 5910 5909 5909 5908 5908 5907 5906 5904 5903 5901 5901 5901 5900 5899 5898 5898 5896 5896 5895 5895 5895 5894 5894 5895 5895 5895 5896 5897 5898 5899 5900 5900 5900 5901 5901 5901 5901 5901 5902 5902 5902
5910 5911 5910 5910 5910 5910 5910 5909 5909 5909 5908 5908 5907 5906 5905 5904 5902 5901 5900 5900 5899 5898 5898 5897 5895 5894 5894 5894 5893 5893 5893 5893 5893 5894 5894 5895 5897 5897 5898 5899 5900 5900 5900 5900 5901 5901 5901 5902 5902
5909 5910 5910 5909 5909 5909 5911 5909 5908 5908 5907 5907 5907 5906 5905 5903 5902 5901 5899 5898 5897 5896 5896 5895 5894 5893 5893 5892 5892 5892 5891 5891 5891 5891 5893 5894 5895 5896 5897 5898 5898 5899 5899 5900 5900 5901 5901 5901 5902
5908 5909 5909 5909 5908 5909 5909 5908 5907 5907 5906 5907 5906 5905 5904 5903 5901 5900 5899 5898 5897 5895 5894 5893 5892 5892 5891 5891 5891 5890 5889 5889 5889 5889 5890 5892 5893 5894 5895 5896 5897 5898 5899 5899 5900 5900 5901 5901 5901
5906 5907 5906 5906 5907 5907 5907 5907 5905 5905 5905 5905 5905 5904 5903 5902 5900 5899 5898 5896 5894 5894 5893 5892 5891 5890 5890 5889 5889 5888 5888 5887 5887 5887 5888 5890 5892 5893 5894 5895 5896 5897 5898 5898 5899 5899 5900 5900 5900
5903 5904 5904 5905 5905 5905 5905 5905 5905 5903 5903 5904 5904 5903 5902 5901 5899 5897 5896 5895 5893 5892 5891 5890 5889 5888 5888 5887 5887 5886 5886 5886 5886 5886 5887 5888 5890 5891 5892 5894 5895 5896 5896 5896 5897 5898 5898 5899 5899
5901 5902 5902 5903 5903 5903 5904 5904 5903 5902 5902 5902 5902 5902 5900 5898 5897 5895 5895 5893 5892 5891 5890 5889 5888 5887 5886 5885 5885 5885 5884 5884 5884 5885 5886 5887 5888 5889 5890 5892 5893 5894 5894 5895 5895 5896 5897 5898 5898
5898 5899 5901 5901 5901 5901 5902 5902 5902 5901 5900 5900 5900 5899 5898 5897 5894 5893 5893 5892 5891 5890 5889 5887 5887 5886 5885 5884 5883 5883 5883 5882 5882 5883 5884 5885 5885 5887 5888 5889 5890 5891 5892 5892 5893 5894 5895 5896 5897
5895 5897 5898 5898 5898 5899 5900 5900 5900 5899 5899 5898 5898 5897 5896 5895 5893 5893 5892 5890 5889 5888 5887 5886 5885 5884 5883 5882 5881 5881 5881 5881 5881 5881 5881 5882 5883 5884 5886 5887 5888 5889 5889 5890 5891 5892 5893 5894 5894
5892 5893 5894 5895 5895 5896 5897 5896 5898 5896 5896 5896 5896 5896 5895 5893 5892 5891 5890 5888 5886 5885 5884 5883 5882 5882 5881 5880 5880 5879 5879 5879 5879 5879 5879 5880 5881 5882 5883 5884 5885 5886 5887 5887 5888 5889 5890 5891 5892
5888 5890 5891 5891 5892 5894 5894 5894 5894 5894 5894 5894 5894 5894 5893 5892 5890 5889 5888 5887 5884 5882 5881 5881 5880 5879 5879 5878 5877 5877 5877 5877 5877 5877 5877 5877 5878 5879 5880 5881 5882 5883 5884 5885 5885 5886 5887 5888 5888
5884 5886 5887 5888 5889 5891 5891 5891 5892 5891 5891 5891 5891 5892 5891 5890 5889 5887 5886 5884 5883 5881 5879 5878 5878 5877 5876 5876 5875 5875 5875 5875 5875 5875 5875 5875 5875 5876 5877 5878 5879 5880 5881 5881 5882 5883 5883 5884 5885
5880 5882 5884 5886 5886 5887 5887 5887 5889 5888 5887 5888 5888 5888 5888 5887 5886 5885 5883 5882 5880 5879 5877 5876 5875 5875 5874 5873 5872 5872 5872 5872 5872 5872 5872 5872 5872 5872 5873 5874 5875 5876 5877 5878 5879 5879 5880 5881 5881
5875 5877 5880 5881 5882 5883 5884 5884 5885 5885 5885 5885 5885 5885 5885 5885 5884 5882 5881 5879 5878 5877 5876 5875 5873 5872 5871 5870 5869 5868 5869 5869 5869 5869 5868 5868 5869 5869 5869 5870 5871 5872 5873 5874 5875 5875 5876 5877 5877
5871 5873 5874 5876 5877 5879 5880 5881 5882 5882 5883 5883 5882 5882 5882 5881 5881 5879 5878 5876 5876 5875 5874 5873 5871 5870 5869 5868 5867 5866 5866 5866 5866 5866 5865 5865 5865 5865 5865 5866 5866 5867 5868 5869 5870 5871 5872 5872 5873
5866 5868 5870 5872 5873 5875 5876 5880 5879 5879 5879 5879 5879 5879 5878 5878 5877 5876 5875 5874 5873 5873 5872 5870 5868 5867 5866 5865 5865 5864 5864 5863 5863 5862 5862 5861 5861 5861 5861 5862 5862 5863 5863 5864 5865 5865 5866 5867 5868
5860 5863 5866 5868 5870 5871 5872 5877 5874 5875 5876 5875 5875 5875 5875 5875 5873 5873 5871 5871 5871 5870 5869 5868 5866 5865 5864 5863 5862 5862 5861 5861 5860 5859 5859 5858 5858 5858 5857 5857 5857 5857 5858 5858 5859 5860 5861 5862 5862